Location: Lafig�re
(44.4503°N, 4.0357°E)
Time: 00:54:13
(UTC+00:00)

Cosmos 2150 Rocket - Pass Details

Date: 21 January 2021
Orbit: 748 x 808 km, 74.0° (Epoch: 06 March)

Event Time Altitude Azimuth Distance (km) Brightness Sun altitude
Exits shadow 04:30:32 - 359° (N) 2,882 7.0 -28.7°
Reaches altitude 10° 04:32:43 10° 15° (NNE) 2,341 6.6 -28.3°
Maximum altitude 04:35:46 15° 50° (NE) 2,006 6.7 -27.8°
Drops below altitude 10° 04:38:50 10° 86° (E) 2,357 7.5 -27.2°
Sets 04:42:18 0° 108° (ESE) 3,293 8.5 -26.6°
